Regional Weather Roundup
Issued by NWS

Home | Current Version | Previous Version | Graphics & Text | Print | Product List | Glossary On
Versions: 1 2 3 4 5 6 7 8 9 10 11 12 13 14 15 16 17 18 19 20 21 22 23 24 25 26 27 28 29 30 31 32 33 34 35 36 37 38 39 40 41 42 43 44 45 46 47 48 49 50
005
ASUS43 KMPX 200210
RWRMN
WEATHER ROUNDUP FOR MINNESOTA
NATIONAL WEATHER SERVICE TWIN CITIES/CHANHASSEN MN
900 PM CDT SAT AUG 19 2017


NOTE: "FAIR" INDICATES FEW OR NO CLOUDS BELOW 12,000 FEET WITH NO
SIGNIFICANT WEATHER AND/OR OBSTRUCTIONS TO VISIBILITY. N/A MEANS
CURRENT SKY AND/OR WEATHER CONDITIONS ARE NOT AVAILABLE.

MNZ060>063-068>070-200300-
   Twin Cities Metro

CITY           SKY/WX    TMP DP  RH WIND       PRES   REMARKS
TWIN CITIES    PTCLDY    76  62  62 VRB6      29.88S
ST PAUL        CLEAR     71  66  84 VRB7      29.88S
CRYSTAL        CLEAR     72  61  68 S3        29.87R
BLAINE         CLEAR     72  63  73 S3        29.88S
LAKEVILLE      CLEAR     64  64 100 CALM      29.89S
EDEN PRAIRIE   CLEAR     72  64  76 S6        29.87S
SOUTH ST PAUL  CLEAR     73  62  70 S3        29.89R
LAKE ELMO      FAIR      68  63  83 S5        29.90S
$$
MNZ001>005-007-008-013>017-022>024-027-028-200300-
   Northwest Minnesota

CITY           SKY/WX    TMP DP  RH WIND       PRES   REMARKS
BEMIDJI        CLEAR     68  59  73 S5        29.82R
HALLOCK        CLEAR     75  63  64 S14       29.69S
ROSEAU         CLEAR     72  63  73 S9        29.75R
WARROAD        CLEAR     70  63  78 S3        29.76R
THIEF RVR FALL PTCLDY    69  61  75 S9        29.78R
CROOKSTON      CLEAR     75  61  60 S13G20    29.76S
FOSSTON        CLEAR     63  57  82 S6        29.81R
DETROIT LAKES  PTCLDY    70  61  73 S6        29.84R
MOORHEAD       PTCLDY    72  63  73 SE9       29.78S
PARK RAPIDS    CLOUDY    70  60  70 SE6       29.84R
MAHNOMEN       FAIR      66  61  83 S6        29.81R
$$
MNZ006-009>011-018-025>026-200300-
   North Central Minnesota

CITY           SKY/WX    TMP DP  RH WIND       PRES   REMARKS
BAUDETTE       CLEAR     69  57  65 S7        29.77S
FLAG ISLAND    CLEAR     73  66  78 S3        29.73R
INTL FALLS     CLEAR     68  58  70 CALM      29.80R
WASKISH        CLEAR     68  61  77 CALM      29.80R
BIG FORK       CLEAR     63  61  94 CALM      29.84R
LONGVILLE      CLEAR     66  61  82 SE5       29.85S
GRAND RAPIDS   CLEAR     63  61  93 S3        29.88R
CRANE LAKE     CLEAR     59  57  94 CALM      29.84R
ORR            CLEAR     64  57  77 SE3       29.82R
COOK           CLEAR     68  59  73 CALM      29.85R
WALKER         FAIR      69  59  70 S6        29.84R
$$
MNZ012-019>021-037-200300-
   Northeast Minnesota

CITY           SKY/WX    TMP DP  RH WIND       PRES   REMARKS
DULUTH         PTCLDY    69  62  78 SW7       29.88R
ELY            CLEAR     64  57  77 CALM      29.85S
HIBBING        CLEAR     63  59  87 CALM      29.86R
EVELETH        CLEAR     63  58  84 CALM      29.88R
DULUTH HARBOR  CLEAR     73  66  78 S10       29.85S
TWO HARBORS    CLEAR     66  61  82 CALM      29.85R
SILVER BAY     CLEAR     66  63  88 CALM      29.84S
GRAND MARAIS     N/A     64  61  90 W3        29.82R
G MARAIS ARPRT PTCLDY    63  54  72 SW3       29.88S
$$
MNZ029>031-032-039>041-046>048-054>057-064-200300-
   West Central Minnesota

CITY           SKY/WX    TMP DP  RH WIND       PRES   REMARKS
FERGUS FALLS   PTCLDY    70  63  78 SE7       29.81R
WHEATON        CLEAR     66  63  88 SE7       29.81S
MORRIS         CLEAR     68  64  88 SE8       29.81S
ALEXANDRIA     CLOUDY    68  63  84 SE8       29.86R
ELBOW LAKE     FAIR      67  64  88 E7        29.83R
WADENA         CLEAR     66  61  82 CALM      29.84S
GLENWOOD       CLEAR     66  63  88 SE7       29.86R
APPLETON       CLEAR     72  63  73 SE6       29.82R
BENSON         CLEAR     72  64  78 S7        29.84S
ORTONVILLE     CLEAR     70  64  83 MISG      29.81R
MADISON        CLEAR     70  70 100 SE6       29.82R
WILLMAR        FAIR      70  66  88 SE7       29.86S
$$
MNZ033>034-036-042>043-049>051-058-059-200300-
   Central Minnesota

CITY           SKY/WX    TMP DP  RH WIND       PRES   REMARKS
ST CLOUD       CLEAR     67  63  87 SE5       29.87R
SAUK CENTRE    FAIR      66  62  86 SE5       29.86R
PAYNESVILLE    CLEAR     70  64  82 SE5       29.87S
AITKIN         CLEAR     61  57  88 CALM      29.86R
PINE RIVER     CLOUDY    63  57  82 CALM      29.89R
BRAINERD       CLEAR     66  61  84 S3        29.86R
STAPLES        CLEAR     68  61  77 CALM      29.85S
LONG PRAIRIE   FAIR      63  61  94 E5        29.87R
LITTLE FALLS   CLEAR     64  59  82 SE5       29.87R
LITCHFIELD     CLEAR     70  66  88 CALM      29.87S
BUFFALO        CLEAR     68  62  80 CALM      29.88S
MAPLE LAKE     CLEAR     68  65  88 CALM      29.88S
HUTCHINSON     CLEAR     68  66  93 SE3       29.88S
$$
MNZ037-044-045-052-053-200300-
   East Central Minnesota

CITY           SKY/WX    TMP DP  RH WIND       PRES   REMARKS
PRINCETON      CLEAR     66  61  82 CALM      29.88S
MORA           CLEAR     64  61  88 CALM      29.90R
CAMBRIDGE      CLEAR     70  57  64 CALM      29.88S
RUSH CITY      CLEAR     63  60  91 CALM      29.88S
MOOSE LAKE     PTCLDY    63  61  94 CALM      29.86R FOG
HINCKLEY       FAIR      63  63 100 CALM      29.88S
CLOQUET        CLEAR     66  59  77 SW3       29.88R
MCGREGOR       CLEAR     66  59  77 S3        29.88R
$$
MNZ071>073-080-081-089-090-097-098-200300-
   Southwest Minnesota

CITY           SKY/WX    TMP DP  RH WIND       PRES   REMARKS
MONTEVIDEO     CLEAR     68  64  88 S7        29.83S
GRANITE FALLS  CLEAR     71  66  82 SE7       29.85S
CANBY          CLEAR     71  64  79 CALM      29.84R
MARSHALL       CLEAR     70  66  87 SE8       29.85R
REDWOOD FALLS  CLEAR     70  65  84 SE7       29.85R
OLIVIA         CLEAR     70  64  83 SE7       29.85S
PIPESTONE      CLEAR     70  64  83 S6        29.88R
WINDOM         CLEAR     72  64  78 SE6       29.88S
WORTHINGTON    CLOUDY    71  64  78 S7        29.89R
JACKSON        PTCLDY    70  64  83 CALM      29.90R
TRACY          MOCLDY    72  66  83 S8        29.86S
SLAYTON        PTCLDY    68  62  82 SE5       29.89R
$$
MNZ065>067-074>077-082>085-091>093-200300-
   South Central Minnesota

CITY           SKY/WX    TMP DP  RH WIND       PRES   REMARKS
MANKATO        CLEAR     68  65  90 SE6       29.89S
NEW ULM        CLEAR     70  64  83 SE7       29.87S
ST JAMES       CLEAR     70  64  83 SE6       29.89R
FAIRMONT       PTCLDY    69  66  90 SE7       29.89S
GLENCOE        CLEAR     70  67  92 SE3       29.87S
FARIBAULT      CLEAR     68  64  88 CALM      29.91R
OWATONNA       CLEAR     68  63  83 SE6       29.91S
WASECA         CLEAR     64  63  94 SE6       29.91S
ALBERT LEA     CLEAR     72  64  78 S5        29.92R
$$
MNZ078>079-086>088-094>096-200300-
   Southeast Minnesota

CITY           SKY/WX    TMP DP  RH WIND       PRES   REMARKS
ROCHESTER      CLEAR     65  62  90 S6        29.94R
RED WING       CLEAR     66  63  88 CALM      29.89S
DODGE CENTER   CLEAR     64  61  88 S6        29.93S
WINONA         CLEAR     70  61  73 CALM      29.92S
AUSTIN         CLEAR     70  63  78 SE3       29.93R
PRESTON        CLEAR     68  61  77 CALM      29.95R
$$
ABBREVIATIONS USED IN REMARKS
   TC - TEMPERATURES IN CELSIUS
  WCI - WIND CHILL INDEX
   HX - HEAT INDEX
  VSB - VISIBILITY
$$




USA.gov is the U.S. government's official web portal to all federal, state and local government web resources and services.